Location: Calimesa Mobile Home Ranch
(33.9736°N, 117.0370°W)
Time: 13:00:59
(UTC+00:00)

Thor Agena Rocket - Pass Details

Date: 29 May 2024
Orbit: 758 x 804 km, 99.1° (Epoch: 17 June)

Event Time Altitude Azimuth Distance (km) Brightness Sun altitude
Rises 12:08:37 0° 3° (N) 3,302 7.3 -6.3°
Reaches altitude 10° 12:11:04 10° 356° (N) 2,375 6.4 -5.9°
Maximum altitude 12:15:54 39° 289° (WNW) 1,193 4.2 -5.0°
Drops below altitude 10° 12:20:44 10° 222° (SW) 2,375 5.4 -4.1°
Enters shadow 12:22:52 - 216° (SW) 3,180 6.1 -3.7°
